BTI3VL EVRA-LKPR

Flight info

Callsign BTI3VL
Flight time 1h 46m
Altitude 35000
Route BERIL DCT BOKSU/N0447F360 DCT DOSIX DCT AGALU DCT TOMTI DCT ASTEL DCT GOLOP
Aircraft A320/M-SDE3FGHIRWY/LB1

Departure

Time 2026-05-06 17:57
Airport Riga International Airport (EVRA)

Arrival

Time 2026-05-06 19:44
Airport Václav Havel Airport Prague (LKPR)
Time Latitude Longitude Altitude Speed Heading
2026-05-06 17:49 56.92290 23.97609 46 ft 0 kts 185°
2026-05-06 17:52 56.92280 23.97585 46 ft 4 kts 278°
2026-05-06 17:52 56.92276 23.97498 46 ft 9 kts 209°
2026-05-06 17:53 56.92163 23.97476 46 ft 16 kts 184°
2026-05-06 17:53 56.92021 23.97448 46 ft 18 kts 188°
2026-05-06 17:53 56.91868 23.97436 46 ft 20 kts 184°
2026-05-06 17:53 56.91696 23.97406 46 ft 22 kts 185°
2026-05-06 17:54 56.91508 23.97374 46 ft 24 kts 185°
2026-05-06 17:54 56.91312 23.97344 46 ft 26 kts 184°
2026-05-06 17:54 56.91101 23.97306 46 ft 28 kts 185°
2026-05-06 17:54 56.90957 23.97231 46 ft 18 kts 211°
2026-05-06 17:55 56.90818 23.97168 46 ft 19 kts 181°
2026-05-06 17:55 56.90683 23.97127 46 ft 14 kts 212°
2026-05-06 17:55 56.90651 23.97066 46 ft 0 kts 243°
2026-05-06 17:56 56.90650 23.97061 46 ft 1 kts 248°
2026-05-06 17:56 56.90645 23.97012 46 ft 5 kts 266°
2026-05-06 17:56 56.90646 23.96939 46 ft 6 kts 278°
2026-05-06 17:56 56.90668 23.96867 46 ft 7 kts 323°
2026-05-06 17:57 56.90732 23.96851 46 ft 16 kts
2026-05-06 17:57 56.91114 23.96914 46 ft 93 kts
2026-05-06 17:57 56.92174 23.97072 93 ft 168 kts
2026-05-06 17:57 56.93452 23.97248 904 ft 176 kts
2026-05-06 17:58 56.94761 23.97287 1826 ft 181 kts
2026-05-06 17:58 56.96029 23.97259 2683 ft 185 kts 356°
2026-05-06 17:58 56.97264 23.96209 3390 ft 215 kts 322°
2026-05-06 17:58 56.98158 23.93772 4034 ft 245 kts 290°
2026-05-06 17:59 56.98341 23.90533 4824 ft 262 kts 261°
2026-05-06 17:59 56.97679 23.87281 5680 ft 271 kts 233°
2026-05-06 17:59 56.96268 23.84820 6608 ft 273 kts 206°
2026-05-06 17:59 56.94492 23.83349 7468 ft 278 kts 198°
2026-05-06 18:00 56.92673 23.82149 8504 ft 276 kts 198°
2026-05-06 18:00 56.90864 23.80951 9590 ft 272 kts 199°
2026-05-06 18:00 56.88998 23.79680 10659 ft 270 kts 200°
2026-05-06 18:00 56.87178 23.78420 11263 ft 284 kts 201°
2026-05-06 18:01 56.85156 23.77379 11767 ft 302 kts 188°
2026-05-06 18:01 56.82830 23.76760 12545 ft 308 kts 191°
2026-05-06 18:01 56.80455 23.76044 13413 ft 312 kts 191°
2026-05-06 18:01 56.77993 23.75299 14267 ft 315 kts 192°
2026-05-06 18:02 56.75677 23.74600 14993 ft 319 kts 192°
2026-05-06 18:02 56.73304 23.73886 15698 ft 323 kts 192°
2026-05-06 18:02 56.70789 23.73132 16421 ft 327 kts 192°
2026-05-06 18:02 56.68298 23.72387 17106 ft 331 kts 192°
2026-05-06 18:03 56.65811 23.71646 17760 ft 334 kts 192°
2026-05-06 18:03 56.63224 23.70877 18404 ft 338 kts 192°
2026-05-06 18:03 56.60514 23.70072 19096 ft 341 kts 192°
2026-05-06 18:03 56.57785 23.69264 19767 ft 344 kts 192°
2026-05-06 18:04 56.55151 23.68485 20408 ft 346 kts 192°
2026-05-06 18:04 56.52746 23.67775 20960 ft 349 kts 192°
2026-05-06 18:04 56.50297 23.67053 21533 ft 350 kts 192°
2026-05-06 18:04 56.47713 23.66292 22077 ft 353 kts 191°
2026-05-06 18:05 56.44992 23.65492 22660 ft 355 kts 191°
2026-05-06 18:05 56.42287 23.64698 23200 ft 357 kts 191°
2026-05-06 18:05 56.39620 23.63915 23717 ft 360 kts 191°
2026-05-06 18:05 56.36913 23.63123 24242 ft 362 kts 191°
2026-05-06 18:06 56.34262 23.62348 24749 ft 364 kts 191°
2026-05-06 18:06 56.31483 23.61537 25245 ft 366 kts 191°
2026-05-06 18:06 56.28649 23.60710 25715 ft 370 kts 191°
2026-05-06 18:06 56.25714 23.59856 26197 ft 373 kts 191°
2026-05-06 18:07 56.22785 23.59005 26677 ft 375 kts 191°
2026-05-06 18:07 56.19729 23.58118 27171 ft 377 kts 191°
2026-05-06 18:07 56.16680 23.57235 27602 ft 380 kts 191°
2026-05-06 18:07 56.13642 23.56357 28050 ft 383 kts 191°
2026-05-06 18:08 56.10762 23.55525 28452 ft 385 kts 191°
2026-05-06 18:08 56.07965 23.54719 28840 ft 387 kts 191°
2026-05-06 18:08 56.04955 23.53854 29271 ft 388 kts 191°
2026-05-06 18:08 56.01842 23.52959 29647 ft 391 kts 191°
2026-05-06 18:09 55.98938 23.52126 29979 ft 393 kts 191°
2026-05-06 18:09 55.95666 23.51189 30380 ft 395 kts 191°
2026-05-06 18:09 55.92389 23.50252 30734 ft 398 kts 191°
2026-05-06 18:09 55.89174 23.49334 31050 ft 400 kts 191°
2026-05-06 18:10 55.85866 23.48391 31386 ft 402 kts 191°
2026-05-06 18:10 55.82468 23.47426 31853 ft 401 kts 191°
2026-05-06 18:10 55.79091 23.46468 32342 ft 399 kts 191°
2026-05-06 18:10 55.75847 23.45551 32813 ft 396 kts 191°
2026-05-06 18:11 55.72752 23.44676 33224 ft 395 kts 191°
2026-05-06 18:11 55.69610 23.43789 33607 ft 394 kts 191°
2026-05-06 18:11 55.66504 23.42913 33973 ft 394 kts 191°
2026-05-06 18:11 55.63347 23.42025 34354 ft 392 kts 191°
2026-05-06 18:12 55.60238 23.41151 34676 ft 393 kts 191°
2026-05-06 18:12 55.57045 23.40254 34850 ft 393 kts 191°
2026-05-06 18:12 55.50629 23.38458 34951 ft 392 kts 191°
2026-05-06 18:13 55.44286 23.36688 34993 ft 392 kts 192°
2026-05-06 18:13 55.38098 23.34966 34981 ft 392 kts 191°
2026-05-06 18:14 55.31722 23.33197 34967 ft 393 kts 191°
2026-05-06 18:14 55.25275 23.31416 34983 ft 394 kts 191°
2026-05-06 18:15 55.18779 23.29627 34965 ft 394 kts 191°
2026-05-06 18:15 55.12283 23.27843 34963 ft 393 kts 191°
2026-05-06 18:16 55.05860 23.26085 34942 ft 394 kts 191°
2026-05-06 18:16 54.99340 23.24306 34952 ft 394 kts 191°
2026-05-06 18:17 54.92823 23.22535 34945 ft 395 kts 191°
2026-05-06 18:17 54.86213 23.20744 34948 ft 395 kts 191°
2026-05-06 18:18 54.79892 23.19036 34953 ft 396 kts 191°
2026-05-06 18:18 54.73460 23.17304 34953 ft 397 kts 191°
2026-05-06 18:19 54.66867 23.15535 34959 ft 397 kts 191°
2026-05-06 18:19 54.60203 23.13753 34957 ft 397 kts 191°
2026-05-06 18:20 54.53451 23.11953 34955 ft 398 kts 191°
2026-05-06 18:20 54.46707 23.10161 34952 ft 398 kts 191°
2026-05-06 18:21 54.40040 23.08396 34951 ft 398 kts 191°
2026-05-06 18:21 54.33546 23.05908 34940 ft 393 kts 205°
2026-05-06 18:22 54.28054 22.99665 34943 ft 389 kts 224°
2026-05-06 18:22 54.23820 22.90944 34951 ft 389 kts 229°
2026-05-06 18:23 54.19811 22.82720 34952 ft 388 kts 229°
2026-05-06 18:23 54.15775 22.74435 34938 ft 387 kts 229°
2026-05-06 18:24 54.11706 22.66016 34927 ft 387 kts 230°
2026-05-06 18:24 54.07675 22.57668 34922 ft 387 kts 230°
2026-05-06 18:25 54.03599 22.49245 34922 ft 386 kts 229°
2026-05-06 18:25 53.99550 22.40899 34920 ft 385 kts 230°
2026-05-06 18:26 53.95614 22.32799 34919 ft 386 kts 229°
2026-05-06 18:26 53.91394 22.24145 34924 ft 386 kts 229°
2026-05-06 18:27 53.87230 22.15636 34929 ft 387 kts 229°
2026-05-06 18:27 53.83067 22.07162 34938 ft 388 kts 229°
2026-05-06 18:28 53.78824 21.98553 34938 ft 388 kts 229°
2026-05-06 18:28 53.74587 21.89990 34947 ft 388 kts 229°
2026-05-06 18:29 53.70438 21.81633 34952 ft 387 kts 229°
2026-05-06 18:29 53.66215 21.73156 34947 ft 387 kts 229°
2026-05-06 18:30 53.61960 21.64642 34942 ft 386 kts 229°
2026-05-06 18:30 53.57749 21.56245 34939 ft 386 kts 229°
2026-05-06 18:31 53.53585 21.47969 34933 ft 385 kts 229°
2026-05-06 18:31 53.49388 21.39655 34931 ft 385 kts 229°
2026-05-06 18:32 53.45159 21.31306 34927 ft 385 kts 228°
2026-05-06 18:32 53.40896 21.22920 34931 ft 385 kts 229°
2026-05-06 18:33 53.36699 21.14693 34934 ft 386 kts 229°
2026-05-06 18:33 53.32616 21.06716 34937 ft 386 kts 229°
2026-05-06 18:34 53.28439 20.98580 34941 ft 386 kts 229°
2026-05-06 18:34 53.24220 20.90386 34930 ft 386 kts 229°
2026-05-06 18:35 53.20100 20.82414 34931 ft 386 kts 229°
2026-05-06 18:35 53.15920 20.74351 34928 ft 386 kts 229°
2026-05-06 18:36 53.11718 20.66271 34921 ft 387 kts 229°
2026-05-06 18:36 53.07568 20.58316 34924 ft 386 kts 229°
2026-05-06 18:37 53.03442 20.50434 34921 ft 387 kts 229°
2026-05-06 18:37 52.99287 20.42519 34926 ft 386 kts 229°
2026-05-06 18:38 52.95031 20.34439 34925 ft 386 kts 228°
2026-05-06 18:38 52.90748 20.26337 34924 ft 387 kts 228°
2026-05-06 18:39 52.86561 20.18438 34920 ft 388 kts 228°
2026-05-06 18:40 52.80210 20.06505 34934 ft 388 kts 228°
2026-05-06 18:40 52.76207 19.97774 34938 ft 389 kts 240°
2026-05-06 18:41 52.72911 19.88387 34938 ft 388 kts 238°
2026-05-06 18:41 52.69791 19.79706 34938 ft 388 kts 238°
2026-05-06 18:42 52.66648 19.70924 34934 ft 387 kts 238°
2026-05-06 18:42 52.63328 19.61626 34926 ft 386 kts 238°
2026-05-06 18:43 52.60046 19.52445 34919 ft 386 kts 238°
2026-05-06 18:43 52.56846 19.43524 34911 ft 385 kts 238°
2026-05-06 18:44 52.53592 19.34477 34915 ft 385 kts 237°
2026-05-06 18:44 52.50304 19.25368 34910 ft 385 kts 237°
2026-05-06 18:45 52.46819 19.16239 34926 ft 385 kts 230°
2026-05-06 18:45 52.42342 19.08765 34926 ft 385 kts 223°
2026-05-06 18:46 52.37716 19.01374 34929 ft 384 kts 224°
2026-05-06 18:46 52.33057 18.93911 34933 ft 383 kts 224°
2026-05-06 18:47 52.28439 18.86503 34925 ft 383 kts 224°
2026-05-06 18:47 52.24480 18.78161 34938 ft 385 kts 239°
2026-05-06 18:48 52.21222 18.68807 34932 ft 384 kts 238°
2026-05-06 18:48 52.17946 18.59549 34925 ft 384 kts 238°
2026-05-06 18:49 52.14689 18.50266 34927 ft 384 kts 238°
2026-05-06 18:49 52.11515 18.41202 34920 ft 384 kts 238°
2026-05-06 18:50 52.07799 18.32612 34932 ft 383 kts 230°
2026-05-06 18:50 52.04498 18.23945 34938 ft 386 kts 241°
2026-05-06 18:51 52.01439 18.14740 34944 ft 386 kts 238°
2026-05-06 18:51 51.98266 18.05463 34946 ft 386 kts 238°
2026-05-06 18:52 51.95070 17.96296 34946 ft 386 kts 238°
2026-05-06 18:52 51.91900 17.87319 34941 ft 386 kts 238°
2026-05-06 18:53 51.88668 17.78230 34936 ft 386 kts 238°
2026-05-06 18:53 51.85426 17.69160 34941 ft 387 kts 238°
2026-05-06 18:54 51.82098 17.59888 34944 ft 387 kts 238°
2026-05-06 18:54 51.78773 17.50661 34948 ft 387 kts 238°
2026-05-06 18:55 51.75462 17.41505 34947 ft 386 kts 238°
2026-05-06 18:55 51.72195 17.32508 34933 ft 386 kts 237°
2026-05-06 18:56 51.68845 17.23312 34928 ft 386 kts 237°
2026-05-06 18:56 51.65507 17.14187 34935 ft 386 kts 237°
2026-05-06 18:57 51.62167 17.05079 34920 ft 386 kts 237°
2026-05-06 18:57 51.58871 16.96129 34922 ft 385 kts 237°
2026-05-06 18:58 51.55543 16.87122 34923 ft 385 kts 237°
2026-05-06 18:58 51.52194 16.78093 34909 ft 384 kts 237°
2026-05-06 18:59 51.48941 16.69351 34902 ft 384 kts 237°
2026-05-06 18:59 51.45698 16.60665 34710 ft 383 kts 237°
2026-05-06 18:59 51.44077 16.56335 34519 ft 380 kts 237°
2026-05-06 19:00 51.42462 16.52028 34386 ft 380 kts 236°
2026-05-06 19:00 51.40843 16.47720 34243 ft 380 kts 236°
2026-05-06 19:00 51.39229 16.43429 34116 ft 379 kts 237°
2026-05-06 19:00 51.37603 16.39114 33974 ft 378 kts 236°
2026-05-06 19:01 51.35983 16.34822 33844 ft 377 kts 235°
2026-05-06 19:01 51.34407 16.30655 33701 ft 377 kts 235°
2026-05-06 19:01 51.32833 16.26499 33535 ft 376 kts 235°
2026-05-06 19:01 51.31259 16.22350 33385 ft 376 kts 235°
2026-05-06 19:02 51.29692 16.18227 33218 ft 376 kts 235°
2026-05-06 19:02 51.28126 16.14112 33061 ft 375 kts 235°
2026-05-06 19:02 51.26580 16.10055 32907 ft 375 kts 234°
2026-05-06 19:02 51.25008 16.05937 32732 ft 375 kts 234°
2026-05-06 19:03 51.23435 16.01825 32570 ft 374 kts 234°
2026-05-06 19:03 51.21946 15.97937 32402 ft 375 kts 234°
2026-05-06 19:03 51.20449 15.94034 32225 ft 374 kts 234°
2026-05-06 19:03 51.18924 15.90064 32048 ft 372 kts 234°
2026-05-06 19:04 51.17385 15.86066 31859 ft 370 kts 234°
2026-05-06 19:04 51.15837 15.82046 31466 ft 363 kts 234°
2026-05-06 19:04 51.14318 15.78110 31035 ft 357 kts 234°
2026-05-06 19:04 51.12851 15.74317 30565 ft 351 kts 234°
2026-05-06 19:05 51.11383 15.70528 30098 ft 346 kts 234°
2026-05-06 19:05 51.09935 15.66794 29642 ft 340 kts 234°
2026-05-06 19:05 51.08508 15.63121 29166 ft 336 kts 234°
2026-05-06 19:05 51.07094 15.59485 28704 ft 331 kts 234°
2026-05-06 19:06 51.05700 15.55907 28238 ft 326 kts 234°
2026-05-06 19:06 51.04313 15.52352 27782 ft 323 kts 234°
2026-05-06 19:06 51.02915 15.48777 27334 ft 323 kts 234°
2026-05-06 19:06 51.01514 15.45193 26875 ft 322 kts 234°
2026-05-06 19:07 51.00130 15.41658 26414 ft 320 kts 234°
2026-05-06 19:07 50.98779 15.38210 25944 ft 317 kts 234°
2026-05-06 19:07 50.97423 15.34760 25514 ft 316 kts 233°
2026-05-06 19:07 50.96096 15.31383 25021 ft 315 kts 234°
2026-05-06 19:08 50.94949 15.27757 24569 ft 316 kts 245°
2026-05-06 19:08 50.94170 15.23872 24109 ft 315 kts 247°
2026-05-06 19:08 50.93392 15.20014 23666 ft 313 kts 247°
2026-05-06 19:08 50.92605 15.16166 23216 ft 311 kts 247°
2026-05-06 19:09 50.91819 15.12344 22746 ft 309 kts 247°
2026-05-06 19:09 50.91055 15.08629 22301 ft 308 kts 247°
2026-05-06 19:09 50.90289 15.04915 22011 ft 317 kts 247°
2026-05-06 19:09 50.89507 15.01119 21901 ft 327 kts 247°
2026-05-06 19:10 50.88690 14.97143 21851 ft 331 kts 248°
2026-05-06 19:10 50.87852 14.93068 21836 ft 332 kts 248°
2026-05-06 19:10 50.87014 14.89014 21823 ft 332 kts 247°
2026-05-06 19:10 50.85750 14.85380 21825 ft 327 kts 225°
2026-05-06 19:11 50.83794 14.82688 21810 ft 324 kts 217°
2026-05-06 19:11 50.81794 14.80093 21813 ft 324 kts 218°
2026-05-06 19:11 50.79803 14.77468 21817 ft 324 kts 218°
2026-05-06 19:11 50.77806 14.74823 21819 ft 325 kts 218°
2026-05-06 19:12 50.75805 14.72177 21814 ft 325 kts 218°
2026-05-06 19:12 50.73776 14.69501 21401 ft 331 kts 218°
2026-05-06 19:12 50.71705 14.66780 20588 ft 338 kts 218°
2026-05-06 19:12 50.69588 14.64003 19899 ft 338 kts 218°
2026-05-06 19:13 50.67478 14.61243 19235 ft 337 kts 219°
2026-05-06 19:13 50.65391 14.58518 18612 ft 336 kts 219°
2026-05-06 19:13 50.63296 14.55788 17988 ft 335 kts 219°
2026-05-06 19:13 50.61218 14.53082 17429 ft 332 kts 219°
2026-05-06 19:14 50.59072 14.50413 16856 ft 330 kts 211°
2026-05-06 19:14 50.56509 14.49110 16267 ft 330 kts 188°
2026-05-06 19:14 50.53857 14.48605 15644 ft 330 kts 188°
2026-05-06 19:14 50.51215 14.48034 15082 ft 327 kts 189°
2026-05-06 19:15 50.48610 14.47437 14542 ft 324 kts 189°
2026-05-06 19:15 50.46067 14.46847 14004 ft 322 kts 189°
2026-05-06 19:15 50.43567 14.46270 13464 ft 319 kts 189°
2026-05-06 19:15 50.41049 14.45694 13047 ft 311 kts 189°
2026-05-06 19:16 50.38639 14.45148 12682 ft 297 kts 189°
2026-05-06 19:16 50.36405 14.44032 12251 ft 283 kts 214°
2026-05-06 19:16 50.34631 14.41902 11983 ft 269 kts 217°
2026-05-06 19:16 50.32933 14.39883 11621 ft 261 kts 216°
2026-05-06 19:17 50.31251 14.37915 11280 ft 257 kts 216°
2026-05-06 19:17 50.29612 14.36003 10907 ft 256 kts 216°
2026-05-06 19:17 50.27978 14.34098 10541 ft 254 kts 215°
2026-05-06 19:17 50.26376 14.32227 10258 ft 250 kts 215°
2026-05-06 19:18 50.24818 14.30407 10040 ft 240 kts 215°
2026-05-06 19:18 50.23329 14.28670 9811 ft 230 kts 215°
2026-05-06 19:18 50.22051 14.26734 9530 ft 225 kts 238°
2026-05-06 19:18 50.21645 14.24092 9265 ft 229 kts 272°
2026-05-06 19:19 50.22236 14.21577 9029 ft 234 kts 298°
2026-05-06 19:19 50.23291 14.19275 8852 ft 232 kts 302°
2026-05-06 19:19 50.24382 14.17001 8807 ft 235 kts 302°
2026-05-06 19:19 50.25493 14.14677 8785 ft 233 kts 302°
2026-05-06 19:20 50.26608 14.12352 8781 ft 233 kts 302°
2026-05-06 19:20 50.27729 14.10014 8773 ft 232 kts 302°
2026-05-06 19:20 50.28858 14.07652 8774 ft 233 kts 302°
2026-05-06 19:20 50.29994 14.05277 8770 ft 232 kts 302°
2026-05-06 19:21 50.31119 14.02922 8772 ft 233 kts 302°
2026-05-06 19:21 50.32195 14.00657 8773 ft 232 kts 302°
2026-05-06 19:21 50.33276 13.98382 8771 ft 231 kts 302°
2026-05-06 19:21 50.34366 13.96093 8771 ft 232 kts 302°
2026-05-06 19:22 50.35466 13.93778 8773 ft 232 kts 302°
2026-05-06 19:22 50.36591 13.91410 8776 ft 231 kts 302°
2026-05-06 19:22 50.37717 13.89039 8776 ft 231 kts 302°
2026-05-06 19:22 50.38698 13.86583 8772 ft 228 kts 282°
2026-05-06 19:23 50.38674 13.83789 8773 ft 223 kts 244°
2026-05-06 19:23 50.37561 13.81735 8773 ft 220 kts 206°
2026-05-06 19:23 50.35860 13.81265 8771 ft 222 kts 168°
2026-05-06 19:23 50.34163 13.82361 8562 ft 231 kts 153°
2026-05-06 19:24 50.32498 13.83760 8176 ft 234 kts 152°
2026-05-06 19:24 50.30833 13.85196 7828 ft 233 kts 147°
2026-05-06 19:24 50.29393 13.87002 7604 ft 226 kts 135°
2026-05-06 19:24 50.28166 13.89067 7370 ft 219 kts 131°
2026-05-06 19:25 50.27055 13.91163 7200 ft 211 kts 129°
2026-05-06 19:25 50.26026 13.93206 6988 ft 205 kts 128°
2026-05-06 19:25 50.25016 13.95286 6686 ft 203 kts 128°
2026-05-06 19:25 50.24050 13.97252 6447 ft 200 kts 127°
2026-05-06 19:26 50.23106 13.99181 6153 ft 201 kts 127°
2026-05-06 19:26 50.22105 14.01233 5642 ft 211 kts 126°
2026-05-06 19:26 50.21056 14.03393 5168 ft 218 kts 126°
2026-05-06 19:26 50.19979 14.05611 4705 ft 223 kts 125°
2026-05-06 19:27 50.18905 14.07818 4521 ft 214 kts 125°
2026-05-06 19:27 50.17913 14.09858 4357 ft 206 kts 124°
2026-05-06 19:27 50.16978 14.11786 4205 ft 199 kts 124°
2026-05-06 19:27 50.16040 14.13723 4064 ft 191 kts 124°
2026-05-06 19:28 50.15163 14.15532 4034 ft 176 kts 123°
2026-05-06 19:28 50.14377 14.17193 4009 ft 154 kts 125°
2026-05-06 19:28 50.13638 14.18693 3999 ft 151 kts 122°
2026-05-06 19:28 50.12943 14.20169 3999 ft 151 kts 124°
2026-05-06 19:29 50.12170 14.21757 4005 ft 186 kts 124°
2026-05-06 19:29 50.11299 14.23559 4000 ft 184 kts 124°
2026-05-06 19:29 50.10420 14.25381 3995 ft 182 kts 124°
2026-05-06 19:29 50.09524 14.27225 3992 ft 182 kts 125°
2026-05-06 19:30 50.08303 14.28448 3995 ft 187 kts 167°
2026-05-06 19:30 50.06853 14.28030 4001 ft 189 kts 211°
2026-05-06 19:30 50.05907 14.26268 4005 ft 189 kts 240°
2026-05-06 19:30 50.05231 14.24209 3995 ft 187 kts 242°
2026-05-06 19:31 50.04579 14.22157 3996 ft 187 kts 242°
2026-05-06 19:31 50.03921 14.20087 3995 ft 188 kts 242°
2026-05-06 19:31 50.02602 14.15906 3988 ft 188 kts 248°
2026-05-06 19:32 50.02593 14.13611 3997 ft 187 kts 294°
2026-05-06 19:32 50.03529 14.11620 3978 ft 207 kts 311°
2026-05-06 19:32 50.04691 14.09576 4000 ft 215 kts 311°
2026-05-06 19:32 50.05861 14.07520 3997 ft 215 kts 311°
2026-05-06 19:33 50.07050 14.05429 3995 ft 215 kts 311°
2026-05-06 19:33 50.08195 14.03426 4002 ft 215 kts 311°
2026-05-06 19:33 50.09312 14.01471 3999 ft 214 kts 312°
2026-05-06 19:33 50.10464 13.99449 3999 ft 214 kts 311°
2026-05-06 19:34 50.11622 13.97432 3996 ft 214 kts 312°
2026-05-06 19:34 50.12783 13.95397 3994 ft 215 kts 311°
2026-05-06 19:34 50.13948 13.93354 3995 ft 214 kts 311°
2026-05-06 19:34 50.15104 13.91339 3999 ft 213 kts 311°
2026-05-06 19:35 50.16256 13.89328 3997 ft 213 kts 311°
2026-05-06 19:35 50.17401 13.87326 3994 ft 214 kts 312°
2026-05-06 19:35 50.18531 13.85345 3997 ft 213 kts 311°
2026-05-06 19:35 50.19667 13.83353 3998 ft 214 kts 312°
2026-05-06 19:36 50.20818 13.81338 3994 ft 214 kts 312°
2026-05-06 19:36 50.22116 13.79559 3995 ft 212 kts 334°
2026-05-06 19:36 50.23785 13.79188 4000 ft 211 kts 11°
2026-05-06 19:36 50.25265 13.80466 4004 ft 211 kts 46°
2026-05-06 19:37 50.26318 13.82537 3999 ft 209 kts 52°
2026-05-06 19:37 50.27289 13.84582 3996 ft 210 kts 52°
2026-05-06 19:37 50.28250 13.86614 3997 ft 210 kts 52°
2026-05-06 19:37 50.29231 13.88694 3994 ft 210 kts 52°
2026-05-06 19:38 50.30185 13.90720 3994 ft 211 kts 52°
2026-05-06 19:38 50.31010 13.92932 3993 ft 213 kts 72°
2026-05-06 19:38 50.30972 13.95550 3997 ft 216 kts 108°
2026-05-06 19:38 50.29929 13.97683 4003 ft 212 kts 144°
2026-05-06 19:39 50.28500 13.98900 3997 ft 197 kts 151°
2026-05-06 19:39 50.27166 13.99904 4009 ft 196 kts 152°
2026-05-06 19:39 50.25760 14.00940 3996 ft 195 kts 152°
2026-05-06 19:39 50.24387 14.01951 3989 ft 195 kts 152°
2026-05-06 19:40 50.23003 14.02972 3986 ft 196 kts 152°
2026-05-06 19:40 50.21573 14.04032 3989 ft 195 kts 152°
2026-05-06 19:40 50.20247 14.05367 3990 ft 188 kts 130°
2026-05-06 19:40 50.19323 14.07086 3907 ft 170 kts 126°
2026-05-06 19:41 50.18486 14.08719 3694 ft 162 kts 124°
2026-05-06 19:41 50.17717 14.10325 3463 ft 155 kts 121°
2026-05-06 19:41 50.16966 14.11863 3212 ft 151 kts 124°
2026-05-06 19:41 50.16246 14.13328 2924 ft 146 kts 123°
2026-05-06 19:42 50.15573 14.14714 2687 ft 146 kts 124°
2026-05-06 19:42 50.14907 14.16109 2510 ft 148 kts 124°
2026-05-06 19:42 50.14220 14.17555 2351 ft 149 kts 124°
2026-05-06 19:42 50.13474 14.19048 2113 ft 150 kts 127°
2026-05-06 19:43 50.12737 14.20538 1871 ft 149 kts 126°
2026-05-06 19:43 50.12019 14.22016 1617 ft 150 kts 126°
2026-05-06 19:43 50.11313 14.23488 1389 ft 148 kts 127°
2026-05-06 19:43 50.10593 14.24970 1176 ft 144 kts 125°
2026-05-06 19:44 50.09996 14.26209 1200 ft 93 kts 126°
2026-05-06 19:44 50.09635 14.26950 1215 ft 63 kts 127°
2026-05-06 19:44 50.09451 14.27347 1218 ft 22 kts 127°
2026-05-06 19:44 50.09449 14.27459 1218 ft 9 kts 39°
2026-05-06 19:45 50.09473 14.27486 1217 ft 0 kts 36°
2026-05-06 19:45 50.09473 14.27487 1217 ft 0 kts 36°
2026-05-06 19:46 50.09487 14.27502 1216 ft 2 kts 35°
2026-05-06 19:46 50.09494 14.27510 1216 ft 1 kts 35°
2026-05-06 19:46 50.09528 14.27546 1213 ft 8 kts 38°
2026-05-06 19:46 50.09548 14.27571 1211 ft 4 kts 37°
2026-05-06 19:47 50.09593 14.27624 1208 ft 9 kts 36°
2026-05-06 19:47 50.09661 14.27610 1204 ft 10 kts 316°
2026-05-06 19:47 50.09722 14.27510 1203 ft 12 kts 315°
2026-05-06 19:47 50.09799 14.27395 1203 ft 14 kts 316°
2026-05-06 19:48 50.09884 14.27252 1202 ft 16 kts 309°
2026-05-06 19:48 50.09969 14.27078 1202 ft 17 kts 306°
2026-05-06 19:48 50.10061 14.26884 1201 ft 20 kts 306°
2026-05-06 19:48 50.10130 14.26740 1200 ft 14 kts 307°
2026-05-06 19:49 50.10202 14.26596 1198 ft 17 kts 308°
2026-05-06 19:49 50.10293 14.26406 1192 ft 21 kts 305°
2026-05-06 19:49 50.10387 14.26212 1185 ft 9 kts 307°
2026-05-06 19:49 50.10430 14.26124 1182 ft 10 kts 307°
2026-05-06 19:50 50.10483 14.26015 1180 ft 6 kts 306°
2026-05-06 19:50 50.10513 14.25990 1179 ft 4 kts 32°
2026-05-06 19:50 50.10525 14.26026 1179 ft 5 kts 79°
2026-05-06 19:50 50.10532 14.26104 1178 ft 8 kts 82°
2026-05-06 19:51 50.10533 14.26221 1179 ft 10 kts 111°
2026-05-06 19:51 50.10514 14.26271 1181 ft 0 kts 115°
2026-05-06 19:51 50.10519 14.26295 1181 ft 3 kts 56°
2026-05-06 19:51 50.10555 14.26338 1181 ft 4 kts 34°
2026-05-06 19:52 50.10559 14.26342 1181 ft 0 kts 33°